Location: HF.RADOM.PL
(51.4000°N, 21.1600°E)
Time: 22:55:57
(UTC+02:00)

ISS - Visible Passes

Search period start: 28 September 2021 00:00
Search period end: 08 October 2021 00:00
Orbit: 417 x 423 km, 51.6° (Epoch: 28 September)

Date Brightness Start Highest point End Pass type
(mag) Time Alt. Az. Time Alt. Az. Time Alt. Az.
28 Sep -3.8 19:30:51 10° W 19:34:14 87° S 19:36:12 23° ESE visible
28 Sep -1.4 21:07:46 10° W 21:09:10 20° W 21:09:10 20° W visible
29 Sep -3.1 20:20:23 10° W 20:23:38 46° SSW 20:23:39 46° SSW visible
30 Sep -3.5 19:33:01 10° W 19:36:21 60° SSW 19:38:08 24° SE visible
30 Sep -0.8 21:10:24 10° W 21:11:06 13° WSW 21:11:06 13° WSW visible
01 Oct -3.6 18:45:40 10° W 18:49:02 75° SSW 18:52:24 10° ESE visible
01 Oct -2.0 20:22:44 10° W 20:25:32 24° SSW 20:25:39 24° SSW visible
02 Oct -2.4 19:35:14 10° W 19:38:18 33° SSW 19:40:14 18° SSE visible
03 Oct -2.9 18:47:47 10° W 18:51:02 45° SSW 18:54:16 10° SE visible
03 Oct -1.0 20:25:56 10° WSW 20:27:13 12° SW 20:27:52 11° SSW visible
04 Oct -1.3 19:37:47 10° W 19:40:04 17° SW 19:42:21 10° S visible
05 Oct -1.7 18:50:04 10° W 18:52:52 24° SSW 18:55:38 10° SSE visible
07 Oct -0.7 18:53:13 10° WSW 18:54:28 12° SW 18:55:41 10° SSW visible
